THORAD AGENA D DEB

Satellite information

Favourite Embed

Satellite Type and Status

DEBRISIN ORBIT

Key statistics

Satellite THORAD AGENA D DEB at a glance.

Uptime

20293

Days in orbit

Revolutions

≈ 14.0

Per day

Orbit

SSO

Sun Synchronous Orbit

Inclination

98.9

Latest

Satellite identification and parameters

Extended collection of information and parameters for THORAD AGENA D DEB.

Object identification

Identified? True

Debris? True

Object name: THORAD AGENA D DEB

International designator: 1970-025MV

Object number (NORAD): 6139

Object ID (CCSDS): 6139

Country: UNITED STATES OF AMERICA (US)

Current information (Y/N): Y

RCS size: SMALL

Orbital parameters

Period: 102.769 minutes

Inclination: 98.9319 deg

SMA: 7267.771 km

Apoapsis: 941.461 km

Periapsis: 837.81 km

RAAN: 168.0375 deg

Eccentricy: 0.00713087

Argument of periapsis: 285.1312 deg

Mean anomaly: 74.1974 deg

Mean motion: 14.01202588 rev/day

Mean motion (dot): 0.00003667 rev/day2

B* drag term: 0.0024138104 1/REarth

Two-line elements (TLE)

Creation date: Oct. 20, 2025, 10:26 a.m.

Reference frame: TEME

Reference center: EARTH

Epoch: Oct. 20, 2025, 1:37 a.m. UTC

TLE line 0: 0 THORAD AGENA D DEB

TLE line 1: 1 06139U 70025MV 25293.06805294 .00003667 00000-0 24138-2 0 9990

TLE line 2: 2 06139 98.9319 168.0375 0071309 285.1312 74.1974 14.01202588795376

Live tracking on map

Real-time ground track for satellite THORAD AGENA D DEB.

In-orbit conjunctions

A list of the most updated potential collisions computed for object THORAD AGENA D DEB.

Target Orbit TCA Probability of collision Miss distance Type
METEOR 1-27 LEO 2025-10-30 08:00:36 0.0009545499 192.0 (m) PAYLOAD
COSMOS 1275 DEB LEO 2025-03-26 17:13:17 0.0002018788 168.0 (m) DEBRIS
COSMOS 1275 DEB LEO 2025-02-13 17:05:38 0.000109091 238.0 (m) DEBRIS
METEOR 2-11 DEB LEO 2024-06-10 12:17:36 0.0002150125 387.0 (m) DEBRIS

Associated space launch

Meteorological research and development satellite

THORAD AGENA D DEB was lifted into orbit during the mission ‘Thorad SLV-2G Agena D | Nimbus 4’, on board a Thorad SLV-2G Agena D space rocket.

The launch took place on April 8, 1970, 8:17 a.m. from Space Launch Complex 2E.

For more information about the launch, click the button.

Launch to space Thorad SLV-2G Agena D | Nimbus 4
Thorad SLV-2G Agena D | Nimbus 4

Agency: N/A

Status: Launch Successful

Launch date: April 8, 1970, 8:17 a.m. UTC

Rocket: Thorad SLV-2G Agena D

Launch pad: Space Launch Complex 2E

Location: Vandenberg SFB, CA, USA

...

Latest news about this satellite

There are no fresh news available about this satellite. Check back as we update our databases every day.


Newsletter sign-up

Weekly statistics, charts and insights to help you stay on top of the space industry.